Japanese version Home page |
Updated on December 18, 2022 |
|
Orbital ElementsEpoch 2020 May 31.0 TT = JDT 2459000.5 T 2020 Aug. 12.47188 TT Spoto q 1.2586989 (2000.0) P Q n 0.17630329 Peri. 335.22300 +0.82709794 -0.56070604 a 3.1498928 Node 58.93735 +0.52296299 +0.74231816 e 0.6003995 Incl. 2.60669 +0.20595801 +0.36684122 P 5.59 From 1348 observations 2002 Oct. 4-2020 Aug. 25, mean residual 0".6. Nongravitational parameters A1 = +0.02, A2 = +0.0291.
|
Finding Charts
|
Magnitudes Graphm1 = 12.5 + 5 log d + 25.0 log r(t - 25)
|
The orbital elements are published on M.P.E.C. 2020-S188.
|